Regional Weather Roundup
Issued by NWS

Home | Current Version | Previous Version | Graphics & Text | Print | Product List | Glossary On
Versions: 1 2 3 4 5 6 7 8 9 10 11 12 13 14 15 16 17 18 19 20 21 22 23 24 25 26 27 28 29 30 31 32 33 34 35 36 37 38 39 40 41 42 43 44 45 46 47 48 49 50
688
ASUS44 KLIX 280111
RWRLA
LOUISIANA WEATHER ROUNDUP
NATIONAL WEATHER SERVICE NEW ORLEANS LA
800 PM CDT FRI MAR 27 2015

NOTE: "FAIR" INDICATES FEW OR NO CLOUDS BELOW 12,000 FEET WITH NO
      SIGNIFICANT WEATHER AND/OR OBSTRUCTIONS TO VISIBILITY.
      SKY/WX - SKY CONDITION AND SIGNIFICANT WEATHER.
      TMP - AIR TEMPERATURE.    DP   - DEWPOINT TEMPERATURE.
      RH  - RELATIVE HUMIDITY.  PRES - PRESSURE.
      HX  - HEAT INDEX.         WCI  - WIND CHILL INDEX.

*  THESE STATIONS ARE NOT NWS OR FAA STATIONS AND ARE NOT UNDER
   NWS QUALITY CONTROL.

LAZ040-048-061>063-065-066-069-280200-
SOUTHEAST LOUISIANA

CITY           SKY/WX    TMP DP  RH WIND       PRES   REMARKS
N.O. AUDUBON     N/A     64 N/A N/A MISG        N/A
N.O. INTL ARPT PTCLDY    63  41  44 NW7       30.04R
N.O. LAKEFRONT CLEAR     68  44  42 NW16      30.05R
SLIDELL        CLEAR     61  40  45 N3        30.04R
BATON ROUGE    CLEAR     62  42  47 NW3       30.03R
BOOTHVILLE     CLEAR     61  46  57 W7        30.05R
BELLE CHASSE   PTCLDY    62  38  40 CALM      30.04R
BOGALUSA*        N/A     59  37  43 N6        30.06R
GALLIANO*      CLEAR     57  51  80 CALM      30.05R
NEW ROADS*     FAIR      63  42  45 NW7       30.05R
GONZALES*      FAIR      60  47  60 CALM      30.04R
HAMMOND*       CLEAR     59  41  51 CALM      30.05S
HOUMA*         CLEAR     59  44  55 CALM      30.05R
PORT FOURCHON* NOT AVBL

$$

LAZ041-044-053-054-280200-
SOUTHWEST LOUISIANA

CITY           SKY/WX    TMP DP  RH WIND       PRES   REMARKS
LAKE CHARLES   CLEAR     67  40  37 NW6       30.06R
LAFAYETTE      CLEAR     68  40  35 NW9       30.06R
PATTERSON      CLEAR     61  50  67 SW8       30.06R
SALT POINT       N/A     63  54  72 W10       30.05R
NEW IBERIA     CLEAR     65  44  46 NW6       30.06R
CHENAULT AIRPK CLEAR     68  41  37 NW6       30.07R

$$

LAZ027-028-280200-
CENTRAL LOUISIANA

CITY           SKY/WX    TMP DP  RH WIND       PRES   REMARKS
FORT POLK      CLEAR     64  38  39 N9        30.08R
ALEXANDRIA INT CLEAR     60  39  45 NW9       30.06R
ALEXANDRIA     CLEAR     62  32  32 NW3       30.08R

$$

LAZ001-002-280200-
NORTHWEST LOUISIANA

CITY           SKY/WX    TMP DP  RH WIND       PRES   REMARKS
SHREVEPORT     MOCLDY    59  40  49 NW5       30.09S
BARKSDALE AFB  PTCLDY    58  35  41 N6        30.09S
DTN SHREVEPORT PTCLDY    60  33  36 NW6       30.10R

$$

LAZ014-016-280200-
NORTHEAST LOUISIANA

CITY           SKY/WX    TMP DP  RH WIND       PRES   REMARKS
MONROE         CLEAR     53  42  66 NE13      30.12R
TALLULAH       LGT RAIN  52  40  63 N13       30.11R

$$




USA.gov is the U.S. government's official web portal to all federal, state and local government web resources and services.